FW7842 Weather Reports


time (UTC)temp
C
wind
direction
speed
KPH
gust
KPH
rain 1hr
cm
rain 24hr
cm
rain mn
cm
humidity
%
barometer
mb
20260506130044 27 157 4.8 16.1 0.00 0.00 0.00 35 1010.9
20260506125033 26 172 6.4 16.1 0.00 0.00 0.00 37 1011.0
20260506124025 26 159 4.8 12.9 0.00 0.00 0.00 36 1011.1
20260506123033 25 165 4.8 12.9 0.00 0.00 0.00 37 1011.2
20260506122025 26 172 4.8 12.9 0.00 0.00 0.00 37 1011.3
20260506121032 26 155 4.8 14.5 0.00 0.00 0.00 37 1011.3
20260506120024 25 186 4.8 17.7 0.00 0.00 0.00 39 1011.4
20260506115016 25 188 6.4 12.9 0.00 0.00 0.00 38 1011.3
20260506114025 26 151 4.8 14.5 0.00 0.00 0.00 36 1011.4
20260506113017 25 150 3.2 8.0 0.00 0.00 0.00 37 1011.5
20260506112025 25 127 3.2 12.9 0.00 0.00 0.00 37 1011.5
20260506111033 25 163 4.8 16.1 0.00 0.00 0.00 38 1011.5
20260506110026 25 131 3.2 9.7 0.00 0.00 0.00 40 1011.7
20260506105037 24 148 3.2 9.7 0.00 0.00 0.00 39 1011.7
20260506104033 24 176 3.2 12.9 0.00 0.00 0.00 41 1011.8
20260506103033 23 128 4.8 14.5 0.00 0.00 0.00 41 1011.8
20260506102025 23 170 6.4 14.5 0.00 0.00 0.00 42 1012.0
20260506101033 23 143 6.4 14.5 0.00 0.00 0.00 42 1012.0
20260506100025 22 173 4.8 16.1 0.00 0.00 0.00 44 1012.1
20260506095053 22 157 6.4 14.5 0.00 0.00 0.00 45 1012.0
20260506094145 23 156 3.2 8.0 0.00 0.00 0.00 44 1012.0
20260506093033 23 171 4.8 12.9 0.00 0.00 0.00 44 1011.9
20260506092025 23 151 6.4 14.5 0.00 0.00 0.00 44 1012.0
20260506091017 23 173 8.0 16.1 0.00 0.00 0.00 44 1011.8
20260506090053 22 163 6.4 20.9 0.00 0.00 0.00 45 1011.9
20260506085017 22 150 4.8 14.5 0.00 0.00 0.00 46 1011.7
20260506084025 22 155 4.8 12.9 0.00 0.00 0.00 47 1011.9
20260506083018 22 194 3.2 12.9 0.00 0.00 0.00 46 1011.8
20260506082025 21 175 6.4 16.1 0.00 0.00 0.00 48 1011.9
20260506081033 21 152 4.8 9.7 0.00 0.00 0.00 49 1011.9
20260506073054 20 198 3.2 12.9 0.00 0.00 0.00 53 1012.0
20260506072025 20 147 3.2 12.9 0.00 0.00 0.00 53 1012.0
20260506071037 19 173 3.2 8.0 0.00 0.00 0.00 54 1011.9
20260506070113 19 166 3.2 12.9 0.00 0.00 0.00 55 1012.1
20260506062025 17 191 4.8 20.9 0.00 0.00 0.00 59 1011.9
20260506061033 17 168 3.2 8.0 0.00 0.00 0.00 61 1012.1
20260506051057 13 134 1.6 6.4 0.00 0.00 0.00 73 1011.9
20260506045057 12 141 1.6 4.8 0.00 0.00 0.00 75 1011.9
20260506044025 12 114 0.0 4.8 0.00 0.00 0.00 77 1011.9
20260506043018 11 122 0.0 1.6 0.00 0.00 0.00 80 1011.7
20260506042025 10 130 0.0 1.6 0.00 0.00 0.00 82 1011.5
20260506041033 10 0.0 0.0 0.00 0.00 0.00 81 1011.5
20260506040026 10 0.0 0.0 0.00 0.00 0.00 82 1011.3
20260506035017 10 105 0.0 1.6 0.00 0.00 0.00 82 1011.4
20260506034033 10 0.0 0.0 0.00 0.00 0.00 84 1011.4
20260506033017 9 82 0.0 1.6 0.00 0.00 0.00 85 1011.2
20260506032025 9 0.0 0.0 0.00 0.00 0.00 84 1011.2
20260506031049 9 0.0 0.0 0.00 0.00 0.00 83 1011.3
20260506030025 9 0.0 0.0 0.00 0.00 0.00 84 1011.3
20260506025033 9 0.0 0.0 0.00 0.00 0.00 83 1011.3
20260506024046 9 0.0 0.0 0.00 0.00 0.00 83 1011.2
20260506023033 9 0.0 0.0 0.00 0.00 0.00 81 1011.2
20260506022025 10 0.0 0.0 0.00 0.00 0.00 80 1011.2
20260506021033 10 0.0 0.0 0.00 0.00 0.00 79 1011.1
20260506020025 10 0.0 0.0 0.00 0.00 0.00 79 1011.2
20260506015033 10 0.0 0.0 0.00 0.00 0.00 79 1011.3
20260506014026 10 0.0 0.0 0.00 0.00 0.00 79 1011.3
20260506013018 10 0.0 0.0 0.00 0.00 0.00 79 1011.4
20260506012025 10 0.0 0.0 0.00 0.00 0.00 78 1011.4
20260506011033 10 0.0 0.0 0.00 0.00 0.00 78 1011.4
20260506010026 10 0.0 0.0 0.00 0.00 0.00 79 1011.5
20260506005017 10 0.0 0.0 0.00 0.00 0.00 79 1011.5
20260506004033 10 0.0 0.0 0.00 0.00 0.00 78 1011.5
20260506003017 10 0.0 0.0 0.00 0.00 0.00 79 1011.6
20260506002025 10 0.0 0.0 0.00 0.00 0.00 79 1011.5
20260506001041 10 0.0 0.0 0.00 0.00 0.00 79 1011.6
20260506000025 9 0.0 0.0 0.00 0.00 0.00 79 1011.5
20260505235033 9 0.0 0.0 0.00 0.00 0.00 77 1011.6
20260505234046 10 0.0 0.0 0.00 0.00 0.00 77 1011.7
20260505233033 10 0.0 0.0 0.00 0.00 0.00 76 1011.7
20260505232046 11 0.0 0.0 0.00 0.00 0.00 75 1011.7
20260505231034 11 0.0 0.0 0.00 0.00 0.00 75 1011.7
20260505230025 11 0.0 0.0 0.00 0.00 0.00 74 1011.4
20260505225033 11 0.0 0.0 0.00 0.00 0.00 74 1011.4
20260505224105 11 0.0 0.0 0.00 0.00 0.00 70 1011.4
20260505223033 11 0.0 0.0 0.00 0.00 0.00 70 1011.4
20260505222026 12 0.0 0.0 0.00 0.00 0.00 70 1011.4
20260505221039 12 0.0 0.0 0.00 0.00 0.00 69 1011.6
20260505220032 12 0.0 0.0 0.00 0.00 0.00 67 1011.6
20260505215034 13 0.0 0.0 0.00 0.00 0.00 65 1011.8
20260505214026 13 0.0 0.0 0.00 0.00 0.00 64 1011.6
20260505213114 14 0.0 0.0 0.00 0.00 0.00 62 1011.8
20260505212045 15 0.0 0.0 0.00 0.00 0.00 60 1011.8
20260505211034 15 0.0 0.0 0.00 0.00 0.00 59 1011.8
20260505210046 15 73 0.0 1.6 0.00 0.00 0.00 58 1011.8
20260505205018 15 0.0 0.0 0.00 0.00 0.00 59 1011.7
20260505204027 15 0.0 0.0 0.00 0.00 0.00 57 1011.7
20260505203017 15 0.0 0.0 0.00 0.00 0.00 57 1011.6
20260505202052 15 0.0 0.0 0.00 0.00 0.00 58 1011.4
20260505201018 14 0.0 0.0 0.00 0.00 0.00 57 1011.4
20260505200025 14 0.0 0.0 0.00 0.00 0.00 57 1011.3
20260505195034 14 0.0 0.0 0.00 0.00 0.00 56 1011.2
20260505194045 15 0.0 0.0 0.00 0.00 0.00 54 1011.1
20260505193033 16 0.0 0.0 0.00 0.00 0.00 52 1010.9
20260505192026 16 0.0 0.0 0.00 0.00 0.00 49 1010.7
20260505191034 17 0.0 0.0 0.00 0.00 0.00 47 1010.7
20260505190026 18 0.0 0.0 0.00 0.00 0.00 44 1010.6
20260505185018 19 0.0 0.0 0.00 0.00 0.00 42 1010.6
20260505184026 20 0.0 0.0 0.00 0.00 0.00 39 1010.6
20260505183034 20 171 0.0 4.8 0.00 0.00 0.00 38 1010.5
20260505182028 20 184 0.0 8.0 0.00 0.00 0.00 37 1010.3
20260505181018 21 126 0.0 4.8 0.00 0.00 0.00 36 1010.2
20260505180032 21 176 0.0 4.8 0.00 0.00 0.00 35 1010.2
20260505175018 22 0.0 0.0 0.00 0.00 0.00 34 1010.0
20260505174046 23 160 0.0 1.6 0.00 0.00 0.00 33 1010.1
20260505173046 23 115 1.6 6.4 0.00 0.00 0.00 31 1010.1
20260505172026 24 0.0 0.0 0.00 0.00 0.00 31 1010.1
20260505171034 25 0.0 0.0 0.00 0.00 0.00 29 1010.1
20260505170026 25 157 1.6 4.8 0.00 0.00 0.00 29 1010.2
20260505165034 25 116 1.6 6.4 0.00 0.00 0.00 29 1010.1
20260505164026 25 128 0.0 4.8 0.00 0.00 0.00 30 1010.4
20260505163034 25 150 1.6 6.4 0.00 0.00 0.00 29 1010.5
20260505162026 25 184 3.2 9.7 0.00 0.00 0.00 28 1010.6
20260505161034 25 156 3.2 8.0 0.00 0.00 0.00 27 1010.6
20260505153038 26 185 4.8 14.5 0.00 0.00 0.00 29 1010.8
20260505152033 26 134 3.2 12.9 0.00 0.00 0.00 28 1010.7
20260505151018 27 188 4.8 16.1 0.00 0.00 0.00 26 1010.7